Flag for Switzerland Weather past 2 weeks in Grenchen, Solothurn, Switzerland

Now
59 °F

Cool.


Feels Like: 59 °F
Forecast: 50 / 82 °F
Wind: 2 mph from West

Location: Grenchen

Current Time: Aug 1, 2015 at 5:58:00 AM

Latest Report: Aug 1, 2015 at 5:00 AM


Visibility: N/A

Pressure: 29.92 "Hg

Humidity: 86%

Dew point: 55 °F

Location of GrenchenLocation

Historic Weather in Grenchen — Graph

°F

Grenchen temperature yesterday

Maximum temperature yesterday: 75 °F (at 4:00 PM)
Minimum temperature yesterday: 50 °F (at 6:00 AM)
Average temperature yesterday: 64 °F

Past Weeks' High & Low Weather Summary

 TemperatureHumidityPressure
High93 °F (Jul 17, 4:00 PM)97% (Jul 19, 4:00 AM)30.20 "Hg (Jul 19, 4:00 AM)
Low49 °F (Jul 30, 6:00 AM)28% (Jul 17, 4:00 PM)29.64 "Hg (Jul 24, 7:00 PM)
Average70 °F63%29.94 "Hg
* Reported Jul 17 4:00 AM — Aug 1 4:00 AM, Grenchen, Weather by CustomWeather, © 2015

Note: Actual official high and low records may vary slightly from our data, if they occured in-between our weather recording intervals... More about our weather records

Advertising

Grenchen weather history for previous 24 hours

 ConditionsComfort  
Time TempWeatherWind HumidityBarometerVisibility
4:00 AM
Sat, Aug 1
59 °FCool.3 mph83%29.91 "HgN/A
3:00 AM58 °FCool.3 mph82%29.91 "HgN/A
2:00 AM58 °FCool.1 mph80%29.93 "HgN/A
1:00 AM58 °FCool.No wind80%29.93 "HgN/A
12:00 AM62 °FCool.2 mph67%29.92 "HgN/A
11:00 PM
Fri, Jul 31
64 °FMild.3 mph62%29.90 "HgN/A
10:00 PM65 °FMild.2 mph59%29.90 "HgN/A
9:00 PM67 °FMild.3 mph51%29.89 "HgN/A
8:00 PM71 °FMild.7 mph43%29.88 "HgN/A
7:00 PM73 °FMild.9 mph35%29.87 "HgN/A
6:00 PM74 °FMild.12 mph35%29.88 "HgN/A
5:00 PM75 °FMild.14 mph34%29.88 "HgN/A
4:00 PM75 °FMild.14 mph33%29.88 "HgN/A
3:00 PM74 °FMild.15 mph33%29.91 "HgN/A
2:00 PM74 °FMild.16 mph36%29.92 "HgN/A
1:00 PM72 °FMild.17 mph37%29.94 "HgN/A
12:00 PM69 °FMild.16 mph43%29.97 "HgN/A
11:00 AM67 °FMild.20 mph44%29.98 "HgN/A
10:00 AM64 °FMild.17 mph48%30.00 "HgN/A
9:00 AM61 °FRefreshingly cool.13 mph55%30.03 "HgN/A
8:00 AM56 °FCool.7 mph69%30.05 "HgN/A
7:00 AM52 °FCool.6 mph80%30.06 "HgN/A
6:00 AM50 °FCool.6 mph84%30.08 "HgN/A
5:00 AM52 °FCool.9 mph78%30.07 "HgN/A
Weather by CustomWeather, © 2015

See weather overviewHow to use our weather pages